Torna al catalogo

DELTA 1 DEB

AttivoPO
NORAD 26847·DEBRIS·🇺🇸 United States

Lanciato Jun 12, 1975 da Vandenberg Space Force Base

Loading…

Prossimi Passaggi (prossime 24 ore)

TLE

AggiornatoSource: Space-Track

Epoca: Sep 14, 2026, 11:33 UTC

1 26847U 75052LB  26257.48185718 -.00000017  00000-0  52197-4 0  9997
2 26847  99.6689 258.8934 0089866 328.0036 185.5353 13.27124488424745

Traccia DELTA 1 DEB in tempo reale con AllMySat

Download on the App Store